Location: Black Swamp Observatory
(41.3920°N, 84.1250°W)
Time: 04:22:42
(UTC-04:00)

Courier 1B Rocket - Pass Details

Date: 26 January 2022
Orbit: 920 x 1202 km, 28.2° (Epoch: 28 May)

Event Time Altitude Azimuth Distance (km) Brightness Sun altitude
Exits shadow 06:23:22 10° 231° (SW) 2,799 7.0 -16.9°
Reaches altitude 10° 06:23:35 10° 229° (SW) 2,764 7.0 -16.9°
Maximum altitude 06:26:24 13° 204° (SSW) 2,511 7.0 -16.4°
Drops below altitude 10° 06:29:09 10° 178° (S) 2,686 7.5 -15.8°
Sets 06:33:23 0° 152° (SSE) 3,584 8.6 -15.1°
